Location: Artiguedieu
(43.5000°N, 0.5454°E)
Time: 10:09:14
(UTC+00:00)

Vanguard 1 Rocket - Pass Details

Date: 01 August 2021
Orbit: 650 x 4226 km, 34.3° (Epoch: 24 September)

Event Time Altitude Azimuth Distance (km) Brightness Sun altitude
Rises 11:38:41 0° 253° (WSW) 7,598 12.1 63.8°
Reaches altitude 10° 11:44:41 10° 250° (WSW) 6,070 11.8 64.1°
Maximum altitude 12:00:27 53° 181° (S) 2,266 11.7 64.4°
Drops below altitude 10° 12:08:35 10° 106° (ESE) 3,264 10.5 64.4°
Sets 12:10:50 0° 101° (E) 3,949 10.7 64.3°
